[[{"header":{"parameterUnit":"m.s-1","parameterCategory":1,"la1":30.2991,"la2":30.254,"lo1":-89.0895,"lo2":-89.0444,"dy":0.0017,"dx":0.0017,"nx":28,"ny":28,"refTime":"2023-08-29T03:00:00:Z","depth":0,"parameterNumber":2,"parameterNumberName":"U-component_of_WINDS"},"data":[0,0,0,0,0,0,0,0,0,0,0,0,0,0,0,0,0,0,0,0,0,0,0,0,0,0,0,0,0,0,0,0,0,0,0,0,0,0,0,0,0,0,0,0,0,0,0,0,0,0,0,0,0,0,0,0,0,0,-0.428,-0.4281,0,-0.4373,-0.4374,-0.4375,-0.4389,-0.4388,-0.4387,-0.4386,-0.4484,-0.4487,-0.449,0,0,0,0,0,0,0,0,0,0,0,0,0,-0.4116,-0.4119,-0.428,-0.4281,-0.4282,-0.4373,-0.4374,-0.4375,-0.4389,-0.4388,-0.4387,-0.4386,-0.4482,-0.4486,-0.449,0,0,0,0,0,0,0,0,0,0,0,0,0,-0.4196,-0.412,-0.428,-0.43,-0.4303,-0.4372,-0.4374,-0.4376,-0.4389,-0.4388,-0.4387,-0.4386,-0.4481,-0.4486,-0.4491,-0.4548,0,0,-0.4506,-0.4509,0,0,0,0,0,0,0,0,-0.4191,-0.4202,-0.4296,-0.4299,-0.4302,-0.4368,-0.4352,-0.4433,-0.439,-0.4357,-0.4386,-0.4385,-0.4446,-0.4454,-0.4474,-0.4552,-0.4556,-0.4507,-0.451,-0.4512,-0.4514,0,0,0,0,0,0,0,-0.4186,-0.4198,-0.4317,-0.4297,-0.4301,-0.4305,-0.4315,-0.4367,-0.4407,-0.4359,-0.4361,-0.4371,-0.4448,-0.4469,-0.4477,-0.4558,-0.4507,-0.4511,-0.4514,-0.4516,-0.4686,-0.4687,0,0,0,0,0,0,-0.4176,-0.4193,-0.4314,-0.432,-0.4242,-0.4309,-0.432,-0.4348,-0.4407,-0.4415,-0.4372,-0.4372,-0.4461,-0.4471,-0.448,-0.4551,-0.4512,-0.4517,-0.452,-0.4685,-0.4686,-0.4688,0,0,0,0,0,0,-0.4173,-0.4187,-0.431,-0.4257,-0.4273,-0.4313,-0.4344,-0.4351,-0.4372,-0.4417,-0.4424,-0.4387,-0.4461,-0.4473,-0.453,-0.4554,-0.4519,-0.4524,-0.4683,-0.4685,-0.4687,-0.4692,0,0,0,0,0,0,-0.4168,-0.4185,-0.4207,-0.4257,-0.4275,-0.4359,-0.4346,-0.4353,-0.4381,-0.4381,-0.4432,-0.444,-0.4461,-0.4523,-0.4535,-0.456,-0.4528,-0.4681,-0.4684,-0.4686,-0.469,-0.4694,-0.4697,0,0,0,0,0,-0.4162,-0.4205,-0.4208,-0.4223,-0.4303,-0.436,-0.4371,-0.4393,-0.4383,-0.4405,-0.4433,-0.4438,-0.4549,-0.4529,-0.4543,-0.457,-0.468,-0.4683,-0.4686,-0.4688,-0.4693,-0.4697,0,0,0,0,0,0,-0.4158,-0.4212,-0.4216,-0.4277,-0.4313,-0.4362,-0.4391,-0.4398,-0.4439,-0.4437,-0.4464,-0.4476,-0.4532,-0.4556,-0.4533,-0.4627,-0.4613,-0.462,-0.461,-0.4615,-0.4619,-0.4612,-0.4532,0,0,0,0,0,-0.4164,-0.4205,-0.425,-0.4299,-0.4317,-0.4351,-0.4376,-0.439,-0.443,-0.4446,-0.4478,-0.4517,-0.456,-0.4589,-0.4631,-0.4692,-0.4704,-0.4718,-0.4721,-0.4724,-0.473,-0.4764,-0.4771,-0.4699,-0.4699,-0.4699,0,0,-0.4178,-0.4212,-0.4237,-0.4299,-0.433,-0.4372,-0.4364,-0.4409,-0.4441,-0.4453,-0.4509,-0.4534,-0.4579,-0.4638,-0.4666,-0.4661,-0.4752,-0.4729,-0.4731,-0.4735,-0.4769,-0.4775,-0.4781,-0.4701,-0.4701,-0.47,0,0,-0.4224,-0.4254,-0.4298,-0.4328,-0.4373,-0.4395,-0.4405,-0.4453,-0.447,-0.4526,-0.4536,-0.4574,-0.4648,-0.468,-0.4705,-0.4761,-0.4768,-0.4774,-0.4795,-0.4828,-0.4834,-0.4839,-0.486,-0.4867,-0.478,-0.478,-0.478,0,-0.4236,-0.4299,-0.432,-0.4365,-0.4392,-0.4403,-0.4449,-0.4477,-0.4534,-0.4553,-0.4545,-0.4638,-0.4669,-0.4736,-0.475,-0.477,-0.4783,-0.477,-0.4831,-0.4837,-0.4842,-0.4862,-0.487,-0.478,-0.478,-0.478,-0.478,0,-0.4311,-0.4355,-0.4385,-0.4439,-0.447,-0.4514,-0.4543,-0.4571,-0.4582,-0.4604,-0.4661,-0.4698,-0.4749,-0.4765,-0.4776,-0.4834,-0.4829,-0.4826,-0.4813,-0.4849,-0.4869,-0.4876,-0.4781,-0.4781,-0.4781,-0.4781,0,0,-0.436,-0.4424,-0.4435,-0.4459,-0.4509,-0.4544,-0.4588,-0.4636,-0.4661,-0.4699,-0.4738,-0.4799,-0.4796,-0.4826,-0.484,-0.4869,-0.4912,-0.4863,-0.4864,-0.4871,-0.4978,-0.4981,-0.4989,-0.4915,-0.4917,-0.4918,-0.4974,0,-0.4414,-0.4494,-0.4513,-0.4582,-0.4623,-0.4633,-0.4672,-0.4707,-0.4729,-0.4767,-0.479,-0.4834,-0.4827,-0.4844,-0.4873,-0.49,-0.4934,-0.4896,-0.4952,-0.4954,-0.4943,-0.4999,-0.5003,-0.5055,-0.4982,-0.4983,-0.4984,0,-0.4487,-0.4526,-0.4598,-0.4642,-0.466,-0.4695,-0.474,-0.4776,-0.4816,-0.4829,-0.4861,-0.4872,-0.4919,-0.4902,-0.4968,-0.4942,-0.4965,-0.4982,-0.4985,-0.4992,-0.4973,-0.501,-0.5072,-0.508,-0.4996,-0.4995,-0.4994,0,-0.4517,-0.4587,-0.464,-0.466,-0.4712,-0.4737,-0.4759,-0.4798,-0.4825,-0.4864,-0.4882,-0.4927,-0.4952,-0.4986,-0.5009,-0.4994,-0.5073,-0.5057,-0.5086,-0.5086,-0.5104,-0.5103,-0.5172,-0.5117,-0.5116,-0.5116,-0.5116,0,-0.4575,-0.462,-0.4654,-0.4687,-0.4736,-0.4758,-0.4806,-0.483,-0.4863,-0.49,-0.4911,-0.4946,-0.4974,-0.5012,-0.503,-0.5082,-0.5093,-0.5106,-0.5111,-0.5106,-0.5105,-0.5123,-0.5121,-0.5118,-0.5118,-0.5117,-0.5117,0,-0.4618,-0.4643,-0.4701,-0.4745,-0.4757,-0.4792,-0.4829,-0.4861,-0.4882,-0.4929,-0.4941,-0.4975,-0.5021,-0.5046,-0.5104,-0.5116,-0.5174,-0.5176,-0.5161,-0.5164,-0.5191,-0.5189,-0.5276,-0.5289,-0.5224,-0.5224,-0.5225,0,-0.4655,-0.4689,-0.4736,-0.4761,-0.4785,-0.4825,-0.4853,-0.4875,-0.4903,-0.495,-0.4976,-0.5022,-0.5061,-0.5133,-0.5163,-0.5207,-0.5211,-0.5239,-0.5218,-0.5212,-0.5213,-0.5212,-0.5215,-0.5243,-0.5244,-0.5244,-0.5245,0,-0.4718,-0.4728,-0.4767,-0.481,-0.4842,-0.4877,-0.4912,-0.4932,-0.496,-0.4991,-0.5038,-0.5067,-0.5126,-0.5172,-0.5218,-0.5242,-0.5248,-0.525,-0.526,-0.5256,-0.5246,-0.5253,-0.5172,-0.5249,-0.5248,-0.5248,-0.5248,-0.5248,-0.476,-0.479,-0.4828,-0.4871,-0.4899,-0.4931,-0.4963,-0.4987,-0.5026,-0.5075,-0.5085,-0.5135,-0.5172,-0.5235,-0.526,-0.5299,-0.5294,-0.5307,-0.531,-0.5314,-0.5315,-0.5238,-0.5307,-0.5307,-0.5307,-0.5307,-0.5307,0,-0.4824,-0.4848,-0.4887,-0.4935,-0.4969,-0.497,-0.5008,-0.5037,-0.508,-0.5114,-0.5151,-0.5204,-0.5248,-0.528,-0.5325,-0.535,-0.5354,-0.5362,-0.5361,-0.5366,-0.5317,-0.5305,-0.5358,-0.5357,-0.5357,-0.5357,-0.5357,-0.5357,-0.4862,-0.4914,-0.4928,-0.4994,-0.5018,-0.5066,-0.5088,-0.5117,-0.5144,-0.5203,-0.5239,-0.526,-0.5293,-0.534,-0.5381,-0.5389,-0.5406,-0.5413,-0.5422,-0.5375,-0.537,-0.5365,-0.5354,-0.5416,-0.5416,-0.5468,-0.5469,-0.5469]},{"header":{"parameterUnit":"m.s-1","parameterCategory":1,"la1":30.2991,"la2":30.254,"lo1":-89.0895,"lo2":-89.0444,"dy":0.0017,"dx":0.0017,"nx":28,"ny":28,"refTime":"2023-08-29T03:00:00:Z","depth":0,"parameterNumber":3,"parameterNumberName":"V-component_of_WINDS"},"data":[0,0,0,0,0,0,0,0,0,0,0,0,0,0,0,0,0,0,0,0,0,0,0,0,0,0,0,0,0,0,0,0,0,0,0,0,0,0,0,0,0,0,0,0,0,0,0,0,0,0,0,0,0,0,0,0,0,0,-7.0453,-7.0455,0,-7.0613,-7.0615,-7.0616,-7.0546,-7.0542,-7.0538,-7.0534,-7.0693,-7.07,-7.0708,0,0,0,0,0,0,0,0,0,0,0,0,0,-7.0082,-7.0089,-7.0453,-7.0455,-7.0457,-7.0612,-7.0615,-7.0617,-7.0546,-7.0542,-7.0537,-7.0532,-7.069,-7.07,-7.0709,0,0,0,0,0,0,0,0,0,0,0,0,0,-7.0243,-7.0092,-7.0453,-7.0441,-7.0441,-7.0612,-7.0615,-7.0617,-7.0547,-7.0542,-7.0536,-7.053,-7.0687,-7.0699,-7.071,-7.0901,0,0,-7.0746,-7.0751,0,0,0,0,0,0,0,0,-7.0234,-7.0256,-7.044,-7.0442,-7.0443,-7.0553,-7.0542,-7.0712,-7.0549,-7.0507,-7.0534,-7.0527,-7.0651,-7.0665,-7.0708,-7.0908,-7.0915,-7.0747,-7.0755,-7.076,-7.0763,0,0,0,0,0,0,0,-7.0223,-7.0249,-7.0516,-7.0443,-7.0445,-7.0426,-7.0442,-7.0574,-7.061,-7.051,-7.0505,-7.0526,-7.065,-7.0697,-7.0711,-7.0917,-7.0747,-7.0758,-7.0765,-7.0769,-7.1282,-7.1288,0,0,0,0,0,0,-7.0212,-7.024,-7.0511,-7.0521,-7.0322,-7.0437,-7.0456,-7.0524,-7.0608,-7.0615,-7.053,-7.0522,-7.0679,-7.0697,-7.0716,-7.0946,-7.076,-7.0771,-7.0777,-7.1276,-7.1283,-7.129,0,0,0,0,0,0,-7.0205,-7.0237,-7.0504,-7.0379,-7.0412,-7.045,-7.0527,-7.053,-7.0576,-7.0624,-7.0629,-7.0572,-7.0676,-7.07,-7.0856,-7.095,-7.0776,-7.0787,-7.1268,-7.1278,-7.1287,-7.1405,0,0,0,0,0,0,-7.0194,-7.0235,-7.0309,-7.0382,-7.0419,-7.0643,-7.0533,-7.0537,-7.0598,-7.0588,-7.0664,-7.0671,-7.0673,-7.0839,-7.0868,-7.0963,-7.0796,-7.126,-7.1272,-7.1284,-7.1393,-7.1418,-7.1439,0,0,0,0,0,-7.0181,-7.0334,-7.0313,-7.0346,-7.0512,-7.0649,-7.067,-7.0671,-7.0605,-7.0679,-7.071,-7.0668,-7.0935,-7.0855,-7.0887,-7.0988,-7.1254,-7.1269,-7.1283,-7.1383,-7.1413,-7.1439,0,0,0,0,0,0,-7.0269,-7.0344,-7.032,-7.0502,-7.057,-7.0636,-7.073,-7.0703,-7.0789,-7.0776,-7.0771,-7.0789,-7.0951,-7.0985,-7.0894,-7.1177,-7.1084,-7.1106,-7.1149,-7.1178,-7.1201,-7.119,-7.0806,0,0,0,0,0,-7.031,-7.0416,-7.0475,-7.0629,-7.0665,-7.0692,-7.0751,-7.0746,-7.0815,-7.0843,-7.0884,-7.0952,-7.1051,-7.1116,-7.121,-7.1397,-7.1413,-7.1482,-7.1505,-7.1524,-7.1543,-7.1645,-7.1677,-7.1339,-7.1339,-7.1338,0,0,-7.0395,-7.0449,-7.0516,-7.0648,-7.07,-7.0809,-7.0716,-7.0835,-7.0915,-7.086,-7.1011,-7.1044,-7.1119,-7.1292,-7.137,-7.1325,-7.164,-7.1543,-7.1557,-7.1566,-7.1664,-7.1696,-7.1724,-7.1349,-7.1347,-7.1345,0,0,-7.0606,-7.0657,-7.0792,-7.0846,-7.0927,-7.0944,-7.0977,-7.1048,-7.1068,-7.122,-7.1182,-7.1276,-7.1446,-7.1502,-7.1552,-7.1785,-7.175,-7.1815,-7.1936,-7.2035,-7.2062,-7.2086,-7.2169,-7.2199,-7.1834,-7.1834,-7.1834,0,-7.07,-7.0865,-7.0864,-7.0987,-7.1046,-7.1004,-7.114,-7.1192,-7.1298,-7.134,-7.1288,-7.1502,-7.1549,-7.1735,-7.1792,-7.1834,-7.187,-7.1807,-7.2059,-7.2082,-7.2104,-7.2184,-7.2215,-7.1842,-7.1841,-7.184,-7.1839,0,-7.0978,-7.1092,-7.1191,-7.1298,-7.1368,-7.1496,-7.1514,-7.1585,-7.1574,-7.1596,-7.1751,-7.1806,-7.1911,-7.1954,-7.1944,-7.2139,-7.2109,-7.2058,-7.1965,-7.2144,-7.2219,-7.2249,-7.1852,-7.185,-7.1847,-7.1846,0,0,-7.1248,-7.1354,-7.139,-7.1438,-7.1524,-7.1612,-7.1738,-7.1843,-7.1904,-7.1978,-7.2084,-7.223,-7.2184,-7.2241,-7.2236,-7.2324,-7.2506,-7.2262,-7.2264,-7.2306,-7.2725,-7.2763,-7.2799,-7.2483,-7.2489,-7.2493,-7.2719,0,-7.1466,-7.169,-7.1694,-7.1899,-7.2004,-7.1965,-7.2075,-7.2139,-7.2164,-7.2255,-7.2281,-7.2385,-7.2316,-7.2351,-7.2435,-7.2466,-7.259,-7.2449,-7.258,-7.2585,-7.2564,-7.2838,-7.2879,-7.3089,-7.2748,-7.2753,-7.2757,0,-7.175,-7.1837,-7.2053,-7.2125,-7.2169,-7.2268,-7.2365,-7.2453,-7.2525,-7.2536,-7.2601,-7.2583,-7.2711,-7.2614,-7.2789,-7.2694,-7.2747,-7.277,-7.2778,-7.2791,-7.2682,-7.2859,-7.3156,-7.3188,-7.2802,-7.2799,-7.2795,0,-7.1927,-7.2097,-7.2249,-7.2291,-7.2378,-7.2449,-7.2488,-7.2554,-7.2617,-7.27,-7.2741,-7.2837,-7.289,-7.2965,-7.2973,-7.2901,-7.315,-7.3053,-7.3163,-7.3163,-7.3217,-7.3214,-7.3529,-7.3251,-7.325,-7.325,-7.3249,0,-7.217,-7.2304,-7.233,-7.2423,-7.2572,-7.2574,-7.2721,-7.2754,-7.2813,-7.2911,-7.2882,-7.2975,-7.298,-7.3075,-7.3081,-7.3226,-7.325,-7.3262,-7.3263,-7.3266,-7.3264,-7.3301,-7.3287,-7.3258,-7.3256,-7.3255,-7.3253,0,-7.2393,-7.2416,-7.2579,-7.2649,-7.267,-7.2776,-7.2835,-7.2924,-7.2945,-7.307,-7.31,-7.3133,-7.3243,-7.3259,-7.3386,-7.3391,-7.3565,-7.355,-7.3542,-7.354,-7.3649,-7.3639,-7.3999,-7.4047,-7.3737,-7.374,-7.3743,0,-7.2548,-7.265,-7.2732,-7.2797,-7.2841,-7.2945,-7.301,-7.3015,-7.3083,-7.3173,-7.3251,-7.3358,-7.3445,-7.3622,-7.3656,-7.3754,-7.3741,-7.3861,-7.3756,-7.3756,-7.3744,-7.3739,-7.3749,-7.3881,-7.3885,-7.3887,-7.389,0,-7.282,-7.2826,-7.2921,-7.3021,-7.31,-7.3178,-7.3251,-7.3306,-7.332,-7.3398,-7.3512,-7.3579,-7.371,-7.3817,-7.3914,-7.3953,-7.3925,-7.3922,-7.3953,-7.3958,-7.395,-7.3957,-7.3599,-7.3914,-7.3912,-7.391,-7.3909,-7.3908,-7.3014,-7.3104,-7.3176,-7.3283,-7.334,-7.3409,-7.3497,-7.353,-7.3625,-7.3735,-7.3731,-7.3856,-7.3924,-7.4052,-7.4098,-7.4194,-7.4155,-7.4199,-7.421,-7.4222,-7.4233,-7.3934,-7.4211,-7.4211,-7.421,-7.4209,-7.4209,0,-7.3285,-7.333,-7.3429,-7.3534,-7.3618,-7.3586,-7.3665,-7.3738,-7.3849,-7.3916,-7.4002,-7.4132,-7.4236,-7.4279,-7.4381,-7.445,-7.4439,-7.4476,-7.4472,-7.4481,-7.4262,-7.4226,-7.4483,-7.4483,-7.4483,-7.4483,-7.4483,-7.4483,-7.3436,-7.3587,-7.3602,-7.3781,-7.3824,-7.3948,-7.3996,-7.406,-7.4114,-7.4262,-7.4349,-7.4377,-7.4435,-7.454,-7.4634,-7.4643,-7.4683,-7.4726,-7.473,-7.4524,-7.4497,-7.447,-7.4436,-7.4734,-7.4735,-7.4942,-7.4944,-7.4945]}]]